Hourly Weather Roundup
Issued by NWS Central Illinois

Home | Current Version | Previous Version | Text Only | Print | Product List | Glossary On
Versions: 1 2 3 4 5 6 7 8 9 10 11 12 13 14 15 16 17 18 19 20 21 22 23 24 25 26 27 28 29 30 31 32 33 34 35 36 37 38 39 40 41 42 43 44 45 46 47 48 49 50
000
NZUS43 KILX 032110
HWRILX

AREA WEATHER ROUNDUP
NATIONAL WEATHER SERVICE, LINCOLN IL
300 PM CST TUE MAR 03 2015


CITY           SKY/WX    TMP DP  RH WIND       PRES   REMARKS
BLOOMINGTON    CLOUDY    37  37 100 W17       29.75R FOG     WCI  27
CHAMPAIGN      CLOUDY    36  34  92 SW17      29.75S FOG     WCI  26
DECATUR        CLOUDY    39  37  92 W14       29.77R FOG     WCI  31
FLORA          FOG       41  41  99 SW7       29.81S VSB 3/4
GALESBURG      CLOUDY    35  33  89 W14G24    29.71R WCI  26
JACKSONVILLE   CLOUDY    41  38  89 SW9       29.78R FOG     WCI  35
LACON          CLOUDY    36  32  87 W9G20     29.73R FOG     WCI  29
LAWRENCEVILLE  FOG       42  41  96 SW12      29.81F VSB 1/4
LITCHFIELD     FOG       38  37  95 W8        29.80R VSB 1/4 WCI  32
$$


CITY           SKY/WX    TMP DP  RH WIND       PRES   REMARKS
LINCOLN        CLOUDY    39  37  91 SW6       29.77R FOG
MACOMB         CLOUDY    36  35  98 W13       29.77R FOG     WCI  27
MATTOON        LGT RAIN  40  40 100 SW10      29.76S FOG     WCI  33
MT CARMEL AP   FOG       45  41  87 SW13      29.81S VSB 1
OLNEY-NOBLE AP FOG       41  41 100 SW3       29.80F VSB 1/4
PARIS          RAIN      38  38  98 SW12      29.77S WCI  31
PEORIA         CLOUDY    39  34  82 W15G23    29.74R WCI  31
PONTIAC        CLOUDY    36  35  96 W17       29.72R FOG     WCI  26
RANTOUL        CLOUDY    39  37  93 W18G25    29.72F FOG     WCI  30
ROBINSON       FOG       40  40  98 SW14      29.80F VSB 1/2 WCI  32
SPRINGFIELD    CLOUDY    37  35  92 W13       29.78R FOG     WCI  29
TAYLORVILLE    CLOUDY    37  36  93 SW15      29.79R FOG     WCI  28
$$

...REGIONAL REPORTS...


CITY           SKY/WX    TMP DP  RH WIND       PRES   REMARKS
CHICAGO O`HARE CLOUDY    34  30  85 W17G28    29.65R WCI  23
KANKAKEE       CLOUDY    36  34  93 SW17G24   29.70R WCI  25
MOLINE         CLOUDY    35  30  82 W13       29.70R WCI  26
MOUNT VERNON   CLOUDY    43  37  81 SW15      29.82F
PITTSFIELD     CLOUDY    41  38  90 W10       29.79R FOG     WCI  35
QUINCY         LGT RAIN  38  37  97 W9        29.77R FOG     WCI  31
ROCKFORD       CLOUDY    33  29  85 W10       29.66R WCI  25
$$


CITY           SKY/WX    TMP DP  RH WIND       PRES   REMARKS
BURLINGTON     CLOUDY    36  32  85 NW12      29.75R WCI  28
CEDAR RAPIDS   CLOUDY    32  27  81 NW21G29   29.72R WCI  20
DES MOINES     CLOUDY    35  26  69 NW12      29.79R WCI  27
KIRKSVILLE     NOT AVBL
OTTUMWA        CLOUDY    35  30  82 NW13      29.75R WCI  26
ST LOUIS       CLOUDY    46  43  87 W5        29.81R FOG
$$


CITY           SKY/WX    TMP DP  RH WIND       PRES   REMARKS
TERRE HAUTE    CLOUDY    40  39  97 SW9       29.77F FOG     WCI  34
EVANSVILLE     RAIN      50  48  93 SW14      29.83S VSB 1
INDIANAPOLIS   DRIZZLE   40  38  93 SW17      29.74F FOG     WCI  31
LAFAYETTE      CLOUDY    39  37  92 W14G22    29.71F WCI  31
MADISON        CLOUDY    31  24  75 NW9       29.63R WCI  23
MILWAUKEE      CLOUDY    33  26  75 W12       29.60R WCI  24
$$




USA.gov is the U.S. government's official web portal to all federal, state and local government web resources and services.